Location: Days
(41.3591°N, 106.7339°W)
Time: 09:53:53
(UTC+00:00)

O/OREOS (USA 219) - Pass Details

Date: 07 July 2022
Orbit: 621 x 646 km, 72.0° (Epoch: 22 May)

Event Time Altitude Azimuth Distance (km) Brightness Sun altitude
Rises 06:07:57 0° 341° (NNW) 2,965 ? -24.4°
Reaches altitude 10° 06:10:16 10° 345° (NNW) 2,052 ? -24.5°
Maximum altitude 06:14:50 60° 65° (ENE) 740 ? -24.7°
Enters shadow 06:14:57 60° 73° (ENE) 742 ? -24.7°
